"2016-01-25 00:00:00",1314651,3.195,122.7,7.024,1.316,6.421,100.7465,1.204,2.392,64.8,0,109.8,13.35,1.96,84.7
"2016-01-25 00:00:30",1314652,3.465,124,7.652,1.38,6.86,100.7423,1.193,2.472,64.94,0,109.8,13.35,1.95,86.0
"2016-01-25 00:01:00",1314653,2.843,121.7,6.474,1.272,5.83,100.7377,1.182,2.362,64.86,0,109.8,13.35,1.94,83.7
"2016-01-25 00:01:30",1314654,2.997,120.8,7.184,1.316,6.166,100.7346,1.174,2.375,64.95,0,109.8,13.35,1.93,82.8
"2016-01-25 00:02:00",1314655,2.804,122.5,6.784,1.314,6.29,100.7321,1.167,2.362,64.98,0,109.8,13.35,1.92,84.5
"2016-01-25 00:02:30",1314656,2.712,122.2,6.514,1.281,5.669,100.7315,1.166,2.362,64.99,0,109.8,13.35,1.92,84.2
"2016-01-25 00:03:00",1314657,2.947,128.6,6.663,1.359,6.67,100.7344,1.173,2.443,65.14,0,109.8,13.35,1.93,90.6
"2016-01-25 00:03:30",1314658,2.724,132.5,8.31,1.278,5.822,100.7369,1.18,2.368,65.13,0,109.8,13.35,1.94,94.5
"2016-01-25 00:04:00",1314659,2.698,128.6,7.008,1.284,6.384,100.7361,1.178,2.42,65.27,0,109.8,13.35,1.93,90.6
"2016-01-25 00:04:30",1314660,2.183,129.7,6.632,1.211,5.665,100.7321,1.167,2.355,65.25,0,109.8,13.35,1.92,91.7
"2016-01-25 00:05:00",1314661,2.564,132.6,6.212,1.224,6.256,100.7279,1.157,2.41,65.34,0,109.8,13.35,1.91,94.6
"2016-01-25 00:05:30",1314662,2.518,134.2,7.705,1.372,6.467,100.7273,1.155,2.35,65.35,0,109.8,13.35,1.91,96.2
"2016-01-25 00:06:00",1314663,2.471,130.9,6.521,1.299,6.071,100.7268,1.154,2.318,65.35,0,109.8,13.36,1.91,92.9
"2016-01-25 00:06:30",1314664,2.914,131.3,7.523,1.341,6.97,100.7305,1.163,2.433,65.49,0,109.8,13.36,1.92,93.3
"2016-01-25 00:07:00",1314665,2.344,129,6.784,1.155,5.439,100.7271,1.155,2.369,65.5,0,109.8,13.36,1.91,91.0
"2016-01-25 00:07:30",1314666,2.571,126,7.056,1.213,5.976,100.7274,1.155,2.352,65.52,0,109.8,13.36,1.91,88.0
"2016-01-25 00:08:00",1314667,3.12,126.3,7.526,1.332,6.814,100.7285,1.158,2.353,65.59,0,109.8,13.36,1.91,88.3
"2016-01-25 00:08:30",1314668,2.378,126.1,6.606,1.128,5.834,100.7276,1.156,2.35,65.61,0,109.8,13.36,1.91,88.1
"2016-01-25 00:09:00",1314669,2.785,139.7,13.56,1.484,7.285,100.7299,1.162,2.432,65.66,0,109.8,13.35,1.92,101.7
"2016-01-25 00:09:30",1314670,0.9,153.2,9.28,1.038,5.606,100.7319,1.167,2.321,65.33,0,109.8,13.36,1.92,115.2
"2016-01-25 00:10:00",1314671,1.654,162.3,8.94,1.369,7.452,100.7333,1.171,2.37,64.85,0,109.8,13.35,1.93,124.3
"2016-01-25 00:10:30",1314672,0.715,163.8,28.89,1.154,5.77,100.7322,1.168,2.335,64.25,0,109.8,13.35,1.92,125.8
"2016-01-25 00:11:00",1314673,0.134,112.1,6.337,0.045,4.796,100.7328,1.169,2.209,63.77,0,109.8,13.39,1.93,74.1
"2016-01-25 00:11:30",1314674,0.898,139.9,14.82,1.216,6.304,100.7316,1.166,2.318,63.62,0,109.8,13.35,1.92,101.9
"2016-01-25 00:12:00",1314675,0.852,182.8,32.81,1.266,6.348,100.7319,1.167,2.321,63.42,0,109.7,13.36,1.92,144.8
"2016-01-25 00:12:30",1314676,0.58,185.1,9.8,0.221,4.558,100.7328,1.169,2.218,63.15,0,109.7,13.39,1.93,147.1
"2016-01-25 00:13:00",1314677,0.768,169,13.53,0.609,4.997,100.7313,1.165,2.276,63.14,0,109.8,13.36,1.92,131.0
"2016-01-25 00:13:30",1314678,2.447,185.4,13.35,1.39,7.26,100.7316,1.166,2.356,63.11,0,109.8,13.36,1.92,147.4
"2016-01-25 00:14:00",1314679,2.21,163.1,8.36,1.309,6.862,100.7308,1.164,2.406,63.06,0,109.8,13.36,1.92,125.1
"2016-01-25 00:14:30",1314680,2.03,161.4,17.94,1.337,6.51,100.7353,1.176,2.423,63.01,0,109.7,13.36,1.93,123.4
"2016-01-25 00:15:00",1314681,2.544,168.9,5.988,1.325,7.234,100.743,1.195,2.346,62.98,0,109.8,13.36,1.95,130.9
"2016-01-25 00:15:30",1314682,2.355,150.3,7.6,1.247,6.032,100.7523,1.219,2.372,63.3,0,109.8,13.36,1.98,112.3
"2016-01-25 00:16:00",1314683,1.625,152,9.13,0.973,5.413,100.7574,1.232,2.321,63.37,0,109.8,13.36,1.99,114.0
"2016-01-25 00:16:30",1314684,2.492,144.4,9.37,1.377,6.431,100.7597,1.238,2.349,63.39,0,109.8,13.36,1.99,106.4
"2016-01-25 00:17:00",1314685,2.473,130.3,10.84,1.339,5.997,100.7622,1.244,2.379,63.41,0,109.8,13.36,2.00,92.3
"2016-01-25 00:17:30",1314686,3.461,130.4,10.55,1.29,6.456,100.7637,1.248,2.431,63.77,0,109.8,13.36,2.00,92.4
"2016-01-25 00:18:00",1314687,3.919,130.4,8.53,1.441,7.257,100.7693,1.262,2.456,64.12,0,109.8,13.36,2.02,92.4
"2016-01-25 00:18:30",1314688,3.994,127.4,7.667,1.28,6.958,100.7696,1.263,2.477,64.41,0,109.8,13.36,2.02,89.4
"2016-01-25 00:19:00",1314689,4.494,129.4,8.38,1.358,7.184,100.773,1.272,2.439,64.61,0,109.8,13.36,2.03,91.4
"2016-01-25 00:19:30",1314690,3.855,129.8,7.521,1.508,7.058,100.7733,1.272,2.409,64.59,0,109.7,13.36,2.03,91.8
"2016-01-25 00:20:00",1314691,4.599,120.3,6.471,1.271,6.226,100.7747,1.276,2.457,64.78,0,109.7,13.36,2.03,82.3
"2016-01-25 00:20:30",1314692,4.656,124.2,8.29,1.429,6.803,100.7738,1.274,2.516,65.18,0,109.7,13.36,2.03,86.2
"2016-01-25 00:21:00",1314693,4.969,127.1,7.692,1.453,6.823,100.7738,1.274,2.439,65.27,0,109.7,13.36,2.03,89.1
"2016-01-25 00:21:30",1314694,4.754,129.4,6.516,1.444,7.19,100.773,1.272,2.483,65.43,0,109.7,13.36,2.03,91.4
"2016-01-25 00:22:00",1314695,4.216,129.4,7.384,1.339,6.774,100.7747,1.276,2.476,65.51,0,109.7,13.36,2.03,91.4
"2016-01-25 00:22:30",1314696,4,132.7,7.051,1.31,6.27,100.7744,1.275,2.377,65.47,0,109.7,13.36,2.03,94.7
"2016-01-25 00:23:00",1314697,4.597,135.2,6.852,1.411,7.595,100.775,1.277,2.467,65.57,0,109.7,13.36,2.03,97.2
"2016-01-25 00:23:30",1314698,4.14,128.8,6.554,1.171,5.745,100.7742,1.275,2.432,65.55,0,109.7,13.36,2.03,90.8
"2016-01-25 00:24:00",1314699,5.083,135.3,7.134,1.369,7.378,100.7713,1.267,2.531,65.68,0,109.7,13.36,2.02,97.3
"2016-01-25 00:24:30",1314700,4.477,130.3,8.67,1.417,6.702,100.7679,1.259,2.403,65.56,0,109.7,13.36,2.02,92.3
"2016-01-25 00:25:00",1314701,4.326,130.4,8.76,1.377,7.048,100.7654,1.252,2.47,65.65,0,109.7,13.36,2.01,92.4
"2016-01-25 00:25:30",1314702,3.776,132.9,8.38,1.484,7.181,100.7654,1.252,2.505,65.59,0,109.7,13.36,2.01,94.9
"2016-01-25 00:26:00",1314703,3.299,136,10.29,1.323,6.574,100.7657,1.253,2.377,65.11,0,109.7,13.36,2.01,98.0
"2016-01-25 00:26:30",1314704,2.671,123.2,13.14,1.205,6.418,100.7649,1.251,2.451,64.84,0,109.7,13.36,2.01,85.2
"2016-01-25 00:27:00",1314705,3.58,120.1,7.255,1.262,7.146,100.7646,1.25,2.415,64.59,0,109.7,13.36,2.01,82.1
"2016-01-25 00:27:30",1314706,3.457,124.8,8.14,1.312,6.753,100.764,1.249,2.394,64.63,0,109.7,13.36,2.01,86.8
"2016-01-25 00:28:00",1314707,3.583,129.3,10.22,1.209,6.219,100.7654,1.252,2.429,64.52,0,109.7,13.36,2.01,91.3
"2016-01-25 00:28:30",1314708,4.209,136.1,8.62,1.423,7.375,100.7666,1.255,2.451,64.47,0,109.7,13.36,2.01,98.1
"2016-01-25 00:29:00",1314709,2.613,134.5,5.796,1.159,6.266,100.7702,1.265,2.39,64.33,0,109.7,13.36,2.02,96.5
"2016-01-25 00:29:30",1314710,1.968,146.2,10.52,1.145,6.538,100.7728,1.271,2.473,64.22,0,109.7,13.36,2.03,108.2
"2016-01-25 00:30:00",1314711,1.847,159,8.65,1.461,7.223,100.775,1.277,2.399,63.97,0,109.7,13.36,2.03,121.0
"2016-01-25 00:30:30",1314712,1.757,166.3,12.65,1.323,6.436,100.7773,1.283,2.428,63.88,0,109.7,13.36,2.04,128.3
"2016-01-25 00:31:00",1314713,1.568,158.9,4.68,0.212,4.612,100.7801,1.29,2.288,63.69,0,109.7,13.41,2.05,120.9
"2016-01-25 00:31:30",1314714,2.184,156.2,12.14,1.151,5.899,100.781,1.292,2.395,63.83,0,109.7,13.37,2.05,118.2
"2016-01-25 00:32:00",1314715,2.295,150.2,8.86,1.346,7.114,100.781,1.292,2.493,63.91,0,109.7,13.37,2.05,112.2
"2016-01-25 00:32:30",1314716,2.136,149.5,15.09,1.25,5.889,100.781,1.292,2.356,63.75,0,109.7,13.37,2.05,111.5
"2016-01-25 00:33:00",1314717,2.164,147.6,7.602,1.265,6.331,100.781,1.292,2.49,63.95,0,109.7,13.37,2.05,109.6
"2016-01-25 00:33:30",1314718,2.688,144.7,12.52,1.333,7.63,100.781,1.292,2.483,63.86,0,109.7,13.37,2.05,106.7
"2016-01-25 00:34:00",1314719,2.382,131.2,6.858,1.394,5.898,100.781,1.292,2.416,63.95,0,109.7,13.37,2.05,93.2
"2016-01-25 00:34:30",1314720,1.894,127.2,5.052,0.592,4.766,100.781,1.292,2.402,63.97,0,109.7,13.41,2.05,89.2
"2016-01-25 00:35:00",1314721,3.565,131.2,8.22,1.298,6.896,100.7813,1.293,2.453,64.14,0,109.7,13.37,2.05,93.2
"2016-01-25 00:35:30",1314722,3.211,130.9,11.45,1.509,6.816,100.7827,1.296,2.515,64.37,0,109.7,13.37,2.05,92.9
"2016-01-25 00:36:00",1314723,3.709,130.2,7.809,1.319,7.473,100.7886,1.312,2.52,64.43,0,109.7,13.37,2.07,92.2
"2016-01-25 00:36:30",1314724,3.499,135.7,7.466,1.354,6.932,100.7948,1.327,2.522,64.54,0,109.7,13.37,2.08,97.7
"2016-01-25 00:37:00",1314725,3.792,133.2,9.17,1.381,7.079,100.7974,1.334,2.542,64.56,0,109.7,13.37,2.09,95.2
"2016-01-25 00:37:30",1314726,3.603,136.7,6.227,1.249,5.964,100.7988,1.338,2.373,64.3,0,109.7,13.37,2.09,98.7
"2016-01-25 00:38:00",1314727,3.188,140.7,6.823,1.212,6.379,100.8039,1.351,2.538,64.27,0,109.7,13.37,2.11,102.7
"2016-01-25 00:38:30",1314728,3.61,156.5,6.184,1.417,6.932,100.8107,1.368,2.478,63.97,0,109.7,13.37,2.12,118.5
"2016-01-25 00:39:00",1314729,3.474,159,9.01,1.284,7.307,100.8147,1.378,2.557,63.87,0,109.7,13.37,2.13,121.0
"2016-01-25 00:39:30",1314730,4.435,152.8,8.34,1.204,8.35,100.8149,1.379,2.586,63.72,0,109.7,13.37,2.14,114.8
"2016-01-25 00:40:00",1314731,3.598,149.9,6.497,1.294,6.667,100.8149,1.379,2.501,63.74,0,109.7,13.37,2.14,111.9
"2016-01-25 00:40:30",1314732,2.963,150.9,6.059,1.16,6.148,100.8149,1.379,2.554,63.83,0,109.7,13.37,2.14,112.9
"2016-01-25 00:41:00",1314733,3.169,149.1,6.109,1.197,6.233,100.8152,1.379,2.534,63.78,0,109.7,13.37,2.14,111.1
"2016-01-25 00:41:30",1314734,3.623,160.4,8.84,1.349,7.142,100.8152,1.379,2.498,63.68,0,109.7,13.37,2.14,122.4
"2016-01-25 00:42:00",1314735,3.749,157.8,7.987,1.375,7.642,100.8158,1.381,2.582,63.7,0,109.7,13.36,2.14,119.8
"2016-01-25 00:42:30",1314736,3.267,149.8,7.29,1.25,6.44,100.8197,1.391,2.496,63.49,0,109.7,13.36,2.15,111.8
"2016-01-25 00:43:00",1314737,3.777,152.9,8.17,1.314,7.64,100.8285,1.413,2.597,63.45,0,109.7,13.36,2.17,114.9
"2016-01-25 00:43:30",1314738,2.961,144.6,5.279,1.085,5.836,100.8311,1.42,2.503,63.28,0,109.7,13.36,2.18,106.6
"2016-01-25 00:44:00",1314739,3.85,147.3,5.881,1.457,7.085,100.8319,1.422,2.594,63.32,0,109.7,13.36,2.18,109.3
"2016-01-25 00:44:30",1314740,3.603,151.4,7.518,1.331,6.949,100.833,1.425,2.572,63.2,0,109.7,13.36,2.18,113.4
"2016-01-25 00:45:00",1314741,3.816,154.4,6.29,1.328,7.557,100.8364,1.434,2.641,63.06,0,109.7,13.36,2.19,116.4
"2016-01-25 00:45:30",1314742,4.166,156,7.561,1.265,8.06,100.8427,1.449,2.62,62.93,0,109.7,13.36,2.21,118.0
"2016-01-25 00:46:00",1314743,3.529,154.2,5.366,1.164,6.457,100.8478,1.462,2.597,62.86,0,109.7,13.37,2.22,116.2
"2016-01-25 00:46:30",1314744,4.183,160.9,6.492,1.282,7.359,100.8489,1.465,2.637,62.96,0,109.7,13.36,2.22,122.9
"2016-01-25 00:47:00",1314745,3.588,161,8.05,1.193,6.414,100.8489,1.465,2.633,62.95,0,109.7,13.36,2.22,123.0
"2016-01-25 00:47:30",1314746,4.299,167.8,6.809,1.403,7.173,100.8489,1.465,2.626,62.83,0,109.7,13.37,2.22,129.8
"2016-01-25 00:48:00",1314747,4.551,173.2,8.08,1.35,7.609,100.8495,1.467,2.643,62.84,0,109.7,13.37,2.22,135.2
"2016-01-25 00:48:30",1314748,4.04,174.5,12.71,1.494,8.95,100.8517,1.473,2.714,62.73,0,109.7,13.37,2.23,136.5
"2016-01-25 00:49:00",1314749,2.119,155,7.471,1.304,6.717,100.8596,1.493,2.668,62.65,0,109.7,13.37,2.25,117.0
"2016-01-25 00:49:30",1314750,2.441,168.9,15.79,1.103,6.606,100.8656,1.508,2.608,62.52,0,109.7,13.37,2.27,130.9
"2016-01-25 00:50:00",1314751,3.34,147.1,11.45,1.274,7.307,100.8673,1.512,2.733,62.44,0,109.7,13.37,2.27,109.1
"2016-01-25 00:50:30",1314752,1.291,169.3,21.28,1.242,5.386,100.8679,1.514,2.53,61.94,0,109.7,13.37,2.27,131.3
"2016-01-25 00:51:00",1314753,3.077,186.8,18.68,1.824,6.251,100.8744,1.53,2.61,61.86,0,109.7,13.37,2.29,148.8
"2016-01-25 00:51:30",1314754,4.941,192.3,8.94,1.251,9.24,100.8823,1.55,2.777,61.72,0,109.7,13.37,2.31,154.3
"2016-01-25 00:52:00",1314755,4.961,199.4,10.21,1.281,8.83,100.8834,1.553,2.752,61.4,0,109.7,13.37,2.31,161.4
"2016-01-25 00:52:30",1314756,4.159,186.9,6.705,1.468,7.773,100.8846,1.556,2.677,61.23,0,109.7,13.37,2.31,148.9
"2016-01-25 00:53:00",1314757,3.831,195,8.41,1.294,7.125,100.8877,1.564,2.744,61.14,0,109.7,13.37,2.32,157.0
"2016-01-25 00:53:30",1314758,3.62,193.7,7.2,1.374,5.956,100.8999,1.595,2.602,60.92,0,109.7,13.37,2.35,155.7
"2016-01-25 00:54:00",1314759,3.264,187.9,6.897,1.066,6.029,100.9018,1.6,2.583,60.72,0,109.7,13.37,2.36,149.9
"2016-01-25 00:54:30",1314760,3.956,194.9,10.31,1.458,8.03,100.9086,1.618,2.797,60.68,0,109.7,13.37,2.38,156.9
"2016-01-25 00:55:00",1314761,3.385,219.2,10.01,1.375,9.29,100.9191,1.644,2.819,60.35,0,109.7,13.37,2.40,181.2
"2016-01-25 00:55:30",1314762,1.35,226.1,12.64,1.103,6.06,100.9214,1.65,2.666,59.86,0,109.7,13.38,2.41,188.1
"2016-01-25 00:56:00",1314763,3.022,208.5,12.38,1.641,7.527,100.9228,1.654,2.817,59.96,0,109.7,13.37,2.41,170.5
"2016-01-25 00:56:30",1314764,3.758,195.6,8.32,1.348,7.065,100.9225,1.653,2.755,59.87,0,109.7,13.37,2.41,157.6
"2016-01-25 00:57:00",1314765,3.139,209.8,8.91,0.276,5.063,100.929,1.67,2.653,60,0,109.7,13.42,2.43,171.8
"2016-01-25 00:57:30",1314766,3.731,228.8,6.587,1.377,7.313,100.9364,1.688,2.879,60.01,0,109.7,13.37,2.45,190.8
"2016-01-25 00:58:00",1314767,4.276,209,11.71,1.371,8.74,100.9412,1.701,2.913,59.77,0,109.7,13.37,2.46,171.0
"2016-01-25 00:58:30",1314768,5.006,199.1,8.03,1.351,8.68,100.9505,1.725,2.933,59.87,0,109.7,13.37,2.48,161.1
"2016-01-25 00:59:00",1314769,4.567,211,8.54,1.282,8.19,100.9565,1.74,2.892,60.35,0,109.7,13.36,2.50,173.0
"2016-01-25 00:59:30",1314770,4.073,212.5,7.614,1.219,6.91,100.9553,1.737,2.819,60.13,0,109.7,13.37,2.49,174.5
"2016-01-25 01:00:00",1314771,3.597,200.4,3.301,0.302,5.242,100.955,1.736,2.734,59.7,0,109.7,13.41,2.49,162.4
"2016-01-25 01:00:30",1314772,5.558,196.2,11.12,1.421,7.808,100.957,1.741,2.895,60.43,0,109.7,13.36,2.50,158.2
"2016-01-25 01:01:00",1314773,4.582,200.5,8.52,1.388,8.43,100.9579,1.743,2.98,61.39,0,109.7,13.36,2.50,162.5
"2016-01-25 01:01:30",1314774,5.979,192.1,9.34,1.504,8.51,100.959,1.746,2.998,61.55,0,109.7,13.36,2.50,154.1
"2016-01-25 01:02:00",1314775,6.695,182.4,7.282,1.377,7.953,100.9636,1.758,2.99,62.27,0,109.7,13.36,2.52,144.4
"2016-01-25 01:02:30",1314776,5.806,179.1,9.71,1.329,6.556,100.9647,1.761,2.954,63.07,0,109.7,13.36,2.52,141.1
"2016-01-25 01:03:00",1314777,6.107,185.9,8.12,1.397,7.558,100.9625,1.755,2.918,63.35,0,109.7,13.36,2.51,147.9
"2016-01-25 01:03:30",1314778,5.312,192,7.271,1.414,7.145,100.9605,1.75,2.895,63.17,0,109.7,13.36,2.51,154.0
"2016-01-25 01:04:00",1314779,5.231,179,8.62,1.305,7.392,100.9608,1.751,2.965,62.94,0,109.7,13.37,2.51,141.0
"2016-01-25 01:04:30",1314780,5.294,179,6.93,1.285,7.188,100.9602,1.749,2.954,63.28,0,109.7,13.37,2.51,141.0
"2016-01-25 01:05:00",1314781,5.761,188.1,9.1,1.297,8.52,100.9529,1.731,2.939,63.37,0,109.7,13.37,2.49,150.1
"2016-01-25 01:05:30",1314782,4.544,186.5,7.404,1.277,7.753,100.9455,1.712,2.928,63.07,0,109.7,13.37,2.47,148.5
"2016-01-25 01:06:00",1314783,4.602,180.1,7.848,1.315,7.163,100.9396,1.697,2.861,63,0,109.7,13.37,2.45,142.1
"2016-01-25 01:06:30",1314784,3.659,181.7,7.356,1.308,6.259,100.9285,1.668,2.842,63.14,0,109.7,13.37,2.43,143.7
"2016-01-25 01:07:00",1314785,3.057,186.1,5.569,1.039,5.964,100.9302,1.673,2.839,62.98,0,109.7,13.37,2.43,148.1
"2016-01-25 01:07:30",1314786,3.918,189,7.981,1.387,7.627,100.9317,1.676,2.905,62.75,0,109.7,13.37,2.43,151.0
"2016-01-25 01:08:00",1314787,4.079,177.7,7.488,1.296,7.682,100.9299,1.672,2.91,62.76,0,109.7,13.37,2.43,139.7
"2016-01-25 01:08:30",1314788,3.902,180,8.93,1.416,7.685,100.9291,1.67,2.879,62.87,0,109.7,13.37,2.43,142.0
"2016-01-25 01:09:00",1314789,3.4,182.6,6.899,1.309,7.267,100.9271,1.665,2.872,62.79,0,109.7,13.38,2.42,144.6
"2016-01-25 01:09:30",1314790,2.879,174.7,8.96,1.173,5.794,100.9237,1.656,2.766,62.61,0,109.7,13.37,2.41,136.7
"2016-01-25 01:10:00",1314791,2.47,169.1,4.03,0.494,4.672,100.92,1.647,2.71,62.68,0,109.7,13.38,2.40,131.1
"2016-01-25 01:10:30",1314792,3.504,175.2,6.11,1.477,7.462,100.9152,1.635,2.865,62.94,0,109.7,13.37,2.39,137.2
"2016-01-25 01:11:00",1314793,3.745,181.2,8.42,1.327,7.765,100.9127,1.628,2.858,62.94,0,109.7,13.37,2.39,143.2
"2016-01-25 01:11:30",1314794,3.397,189.1,11.54,1.288,7.88,100.9116,1.625,2.848,62.94,0,109.7,13.37,2.38,151.1
"2016-01-25 01:12:00",1314795,2.745,195.5,9.61,1.244,7.195,100.9107,1.623,2.836,62.7,0,109.7,13.37,2.38,157.5
"2016-01-25 01:12:30",1314796,2.22,206.3,7.457,1.223,6.006,100.909,1.619,2.749,62.15,0,109.7,13.37,2.38,168.3
"2016-01-25 01:13:00",1314797,1.841,200.1,8.18,0.222,4.704,100.9073,1.614,2.636,61.5,0,109.7,13.42,2.37,162.1
"2016-01-25 01:13:30",1314798,2.817,203,10.51,1.359,6.48,100.9056,1.61,2.738,61.17,0,109.7,13.37,2.37,165.0
"2016-01-25 01:14:00",1314799,3.239,210.8,7.788,1.312,7.929,100.9051,1.609,2.842,61.05,0,109.7,13.38,2.37,172.8
"2016-01-25 01:14:30",1314800,2.984,206.6,9.9,1.377,8.29,100.9042,1.606,2.853,60.87,0,109.7,13.38,2.36,168.6
"2016-01-25 01:15:00",1314801,2.801,201.4,6.87,1.363,7.542,100.9011,1.599,2.816,60.69,0,109.7,13.38,2.36,163.4
"2016-01-25 01:15:30",1314802,3.108,204.2,9.32,1.439,7.72,100.9003,1.596,2.783,60.67,0,109.7,13.37,2.35,166.2
"2016-01-25 01:16:00",1314803,2.064,199,4.582,0.205,4.91,100.9003,1.596,2.64,60.54,0,109.7,13.41,2.35,161.0
"2016-01-25 01:16:30",1314804,2.769,206.9,12.26,1.239,5.969,100.9008,1.598,2.689,60.51,0,109.7,13.37,2.36,168.9
"2016-01-25 01:17:00",1314805,2.624,228.3,8.11,1.051,6.56,100.9006,1.597,2.774,60.47,0,109.7,13.37,2.35,190.3
"2016-01-25 01:17:30",1314806,3.928,226.4,8.07,1.318,8.67,100.9008,1.598,2.84,60.16,0,109.7,13.37,2.36,188.4
"2016-01-25 01:18:00",1314807,3.117,213.7,9.79,1.362,8.71,100.9003,1.596,2.849,60.06,0,109.7,13.37,2.35,175.7
"2016-01-25 01:18:30",1314808,2.741,209.3,11.29,1.32,7.968,100.902,1.601,2.801,59.99,0,109.7,13.37,2.36,171.3
"2016-01-25 01:19:00",1314809,1.567,202.4,11.52,0.71,5.242,100.9014,1.599,2.643,59.62,0,109.7,13.37,2.36,164.4
"2016-01-25 01:19:30",1314810,1.792,195.5,9.87,0.18,4.821,100.9071,1.614,2.629,59.63,0,109.7,13.41,2.37,157.5
"2016-01-25 01:20:00",1314811,1.959,201.7,16.62,1.42,7.025,100.9099,1.621,2.757,59.84,0,109.7,13.37,2.38,163.7
"2016-01-25 01:20:30",1314812,2.295,200.6,11.12,1.355,7.764,100.9102,1.622,2.78,59.71,0,109.7,13.37,2.38,162.6
"2016-01-25 01:21:00",1314813,2.533,200.8,10.29,1.386,8.53,100.9164,1.638,2.822,59.32,0,109.7,13.38,2.40,162.8
"2016-01-25 01:21:30",1314814,3.032,188.8,9.35,1.265,9.65,100.917,1.639,2.886,59.31,0,109.7,13.38,2.40,150.8
"2016-01-25 01:22:00",1314815,2.248,187.2,8.15,1.366,7.012,100.9195,1.646,2.75,59.15,0,109.7,13.38,2.40,149.2
"2016-01-25 01:22:30",1314816,2.217,156.2,17.42,1.04,4.075,100.9269,1.664,2.659,59.28,0,109.7,13.42,2.42,118.2
"2016-01-25 01:23:00",1314817,2.164,164.3,9.85,0.575,4.613,100.9275,1.666,2.676,60.66,0,109.7,13.42,2.42,126.3
"2016-01-25 01:23:30",1314818,2.549,191,12.79,1.347,7.756,100.9246,1.659,2.846,61.08,0,109.7,13.38,2.42,153.0
"2016-01-25 01:24:00",1314819,3.578,187.5,9.24,1.332,8.7,100.9246,1.659,2.864,60.68,0,109.7,13.38,2.42,149.5
"2016-01-25 01:24:30",1314820,4.296,179.9,12.12,1.326,7.795,100.926,1.662,2.856,61.05,0,109.7,13.38,2.42,141.9
"2016-01-25 01:25:00",1314821,2.961,192.2,19.12,1.758,7.263,100.9246,1.659,2.865,61.89,0,109.7,13.38,2.42,154.2
"2016-01-25 01:25:30",1314822,2.558,215.4,14.89,1.088,6.046,100.9258,1.661,2.706,61.58,0,109.7,13.38,2.42,177.4
"2016-01-25 01:26:00",1314823,1.867,173.7,9.31,0.579,4.686,100.9246,1.659,2.67,61.35,0,109.7,13.42,2.42,135.7
"2016-01-25 01:26:30",1314824,3.183,186.6,11.66,1.391,7.39,100.9224,1.653,2.786,61.3,0,109.7,13.38,2.41,148.6
"2016-01-25 01:27:00",1314825,3.874,185.7,8.28,1.663,7.8,100.9235,1.656,2.859,61.08,0,109.8,13.38,2.41,147.7
"2016-01-25 01:27:30",1314826,3.687,165,10.55,1.431,6.547,100.9232,1.655,2.847,61.86,0,109.7,13.38,2.41,127.0
"2016-01-25 01:28:00",1314827,3.998,187.1,12.9,1.326,8.21,100.9207,1.648,2.892,62.48,0,109.7,13.38,2.41,149.1
"2016-01-25 01:28:30",1314828,3.894,198.6,9.22,1.294,7.31,100.9207,1.648,2.819,62.15,0,109.7,13.38,2.41,160.6
"2016-01-25 01:29:00",1314829,2.241,173.8,6.922,0.362,4.711,100.9207,1.648,2.672,61.71,0,109.7,13.42,2.41,135.8
"2016-01-25 01:29:30",1314830,3.402,175.9,9.02,1.393,6.417,100.9164,1.638,2.858,61.97,0,109.7,13.39,2.40,137.9
"2016-01-25 01:30:00",1314831,3.847,179.3,7.874,1.469,7.431,100.9111,1.624,2.805,62.3,0,109.7,13.38,2.38,141.3
"2016-01-25 01:30:30",1314832,3.965,168.6,12.8,1.454,7.392,100.9071,1.614,2.834,62.77,0,109.7,13.38,2.37,130.6
"2016-01-25 01:31:00",1314833,3.144,187.1,13.82,1.275,8.14,100.906,1.611,2.86,63.3,0,109.7,13.38,2.37,149.1
"2016-01-25 01:31:30",1314834,2.963,186.9,10.71,1.185,6.222,100.9071,1.614,2.787,63.24,0,109.7,13.38,2.37,148.9
"2016-01-25 01:32:00",1314835,2.036,167.2,5.639,0.215,4.548,100.9054,1.609,2.654,62.93,0,109.7,13.42,2.37,129.2
"2016-01-25 01:32:30",1314836,2.961,166.8,6.84,1.241,5.721,100.902,1.601,2.725,62.73,0,109.7,13.37,2.36,128.8
"2016-01-25 01:33:00",1314837,4.065,171.1,7.51,1.605,6.836,100.8933,1.578,2.774,62.61,0,109.7,13.37,2.34,133.1
"2016-01-25 01:33:30",1314838,4.16,168.6,7.544,1.471,7.616,100.8913,1.573,2.835,63.07,0,109.7,13.37,2.33,130.6
"2016-01-25 01:34:00",1314839,4.727,161.7,7.887,1.338,7.566,100.8867,1.562,2.802,63.53,0,109.7,13.37,2.32,123.7
"2016-01-25 01:34:30",1314840,4.988,159.9,6.736,1.284,7.724,100.878,1.539,2.817,63.85,0,109.7,13.37,2.30,121.9
"2016-01-25 01:35:00",1314841,3.384,149.1,4.364,0.718,4.779,100.8737,1.529,2.668,63.96,0,109.7,13.37,2.29,111.1
"2016-01-25 01:35:30",1314842,4.252,148.9,6.596,1.249,5.425,100.8737,1.529,2.71,64.2,0,109.7,13.37,2.29,110.9
"2016-01-25 01:36:00",1314843,5.078,149.3,7.187,1.339,6.739,100.874,1.529,2.739,64.37,0,109.7,13.37,2.29,111.3
"2016-01-25 01:36:30",1314844,5.666,145.6,7.487,1.338,7.83,100.8737,1.529,2.772,64.55,0,109.7,13.37,2.29,107.6
"2016-01-25 01:37:00",1314845,6.05,141.8,7.219,1.327,7.413,100.859,1.491,2.788,64.64,0,109.7,13.37,2.25,103.8
"2016-01-25 01:37:30",1314846,6.408,140.5,6.97,1.322,7.639,100.8556,1.482,2.745,64.78,0,109.7,13.37,2.24,102.5
"2016-01-25 01:38:00",1314847,6.866,139,6.668,1.319,7.714,100.8446,1.454,2.78,64.94,0,109.7,13.37,2.21,101.0
"2016-01-25 01:38:30",1314848,6.914,135,6.64,1.396,6.46,100.8403,1.443,2.657,64.95,0,109.7,13.38,2.20,97.0
"2016-01-25 01:39:00",1314849,6.593,131.3,6.031,1.137,5.53,100.8364,1.433,2.671,65.04,0,109.7,13.37,2.19,93.3
"2016-01-25 01:39:30",1314850,7.536,135.4,6.745,1.276,8.08,100.8166,1.383,2.738,65.18,0,109.8,13.38,2.14,97.4
"2016-01-25 01:40:00",1314851,7.69,134.2,6.943,1.337,7.839,100.8069,1.358,2.708,65.23,0,109.7,13.37,2.11,96.2
"2016-01-25 01:40:30",1314852,7.757,133.4,6.945,1.319,7.695,100.8035,1.35,2.661,65.25,0,109.7,13.38,2.11,95.4
"2016-01-25 01:41:00",1314853,8.23,134.4,5.979,1.164,7.884,100.7868,1.307,2.692,65.38,0,109.7,13.37,2.06,96.4
"2016-01-25 01:41:30",1314854,7.464,130.4,6.938,1.314,7.395,100.7735,1.273,2.651,65.45,0,109.7,13.37,2.03,92.4
"2016-01-25 01:42:00",1314855,7.557,129.9,6.654,1.291,7.45,100.7662,1.254,2.618,65.56,0,109.7,13.38,2.01,91.9
"2016-01-25 01:42:30",1314856,7.498,129.5,6.884,1.315,6.709,100.75,1.213,2.495,65.59,0,109.7,13.37,1.97,91.5
"2016-01-25 01:43:00",1314857,7.225,132.2,6.524,1.345,6.668,100.7399,1.187,2.515,65.69,0,109.7,13.38,1.94,94.2
"2016-01-25 01:43:30",1314858,6.953,131.2,6.425,1.331,6.689,100.7356,1.176,2.481,65.79,0,109.7,13.37,1.93,93.2
"2016-01-25 01:44:00",1314859,6.907,130,6.523,1.362,6.296,100.7209,1.139,2.441,65.87,0,109.7,13.37,1.89,92.0
"2016-01-25 01:44:30",1314860,7.364,133.1,7.137,1.337,7.37,100.7065,1.102,2.452,65.98,0,109.7,13.38,1.86,95.1
"2016-01-25 01:45:00",1314861,7.371,135.3,6.78,1.244,7.318,100.7059,1.101,2.456,66.11,0,109.7,13.38,1.86,97.3
"2016-01-25 01:45:30",1314862,7.221,136.2,6.617,1.256,7.979,100.696,1.075,2.442,66.24,0,109.7,13.38,1.83,98.2
"2016-01-25 01:46:00",1314863,6.921,138.4,6.144,1.267,7.71,100.6816,1.038,2.453,66.32,0,109.7,13.37,1.79,100.4
"2016-01-25 01:46:30",1314864,7.14,139.1,6.254,1.159,7.471,100.6725,1.015,2.406,66.35,0,109.7,13.37,1.77,101.1
"2016-01-25 01:47:00",1314865,6.719,137.1,6.116,1.243,7.248,100.6736,1.018,2.399,66.45,0,109.7,13.37,1.77,99.1
"2016-01-25 01:47:30",1314866,6.728,138.8,6.115,1.167,7.362,100.6719,1.014,2.382,66.49,0,109.7,13.37,1.77,100.8
"2016-01-25 01:48:00",1314867,6.522,140.7,6.318,1.209,7.104,100.6654,0.997,2.336,66.56,0,109.7,13.37,1.75,102.7